STARLINK-1122, 44949

Orbit data source: Space-Track

STARLINK-1122, 44949 is a payload satellite owned by SpaceX/Seattle (US) in LEO that was launched on Tue, 07 Jan 2020 UTC via an FALCON 9 launch vehicle from the Air Force Eastern Test Range (AFETR). Payload-class satellites include a variety of spacecraft equipped with specific instruments for various scientific and technological missions. These include communications satellites like Starlink; space stations such as the ISS; scientific satellites like the Hubble; Earth observation satellites from companies like Planet Labs, Umbra, and HawkEye 360; GPS; miniature CubeSats for education and research; and military/defense satellites.

Loading next visibility...
Identifier
44949, 2020-001AM
Orbit
LEO
Last TLE update
11 hours ago
Origin
Manufacturer
SpaceX/Seattle
Mission
Operational Commercial Communications
Bus & Motor
STARLINK, Unknown motor
Mass
260 kg wet, ~248 kg dry
Launch date (UTC)
2020-01-07 (5 years ago)
Launch vehicle
FALCON 9
Launch site
Air Force Eastern Test Range (AFETR)
Object type
Payload
Rocket body
Debris
Shape & HBR
Box + 1 Pan, 8.86 m
Radar Cross Section
13.562 m², Large (>1 m²)

Expand to show TLE details & history

TLE from 11 hours ago
0 STARLINK-1122
1 44949U 20001AM  25181.83919106  .00000569  00000-0  57079-4 0  9999
2 44949  53.0557  17.2175 0001447  98.1147 262.0006 15.06396430302161
Epoch: 2025-06-30T20:08Z
TLE epoch observation values (Epoch: 2025-06-30T20:08:26.107Z)
Latitude
-0.00004°
Longitude
155.96545°
Altitude
548.241 km
Speed
7.589 km/s
True Right ascension
01h 08m 52s
True Declination
0° 00' 00"
Sunlit
Object was in daylight at epoch
Visualization orbit readout
Latitude
-43.57089°
Longitude
108.57132°
Altitude
562.792 km
Speed
7.579 km/s
Apparent Right ascension
02h 12m 31s
Apparent Declination
-64° 34' 15"
Sunlit
Object is in full shadow
Visualization observer readout
Local Sidereal Time
18:39:20
Azimuth
145.955° SSE
Elevation
-45.213°
Doppler factor
1
Orbital elements
Apogee altitude
548.495 km
Perigee altitude
546.491 km
Semi-major axis
6,925.63 km
Eccentricity
0.00014
Inclination
53.0557°
RAAN
17.2175°
Arg. of periapsis
98.1147°
True anomaly
Unknown
Mean anomaly
262.0006°
Eccentric anomaly
Unknown
Mean motion
3.76577 °/min
Orbital period
95.6 mins
BSTAR
0.000057079
Loading maneuver chart data...
Loading SW <> Apogee altitude chart data...

STARLINK-1122 Visibility forecast

Observer location: undefined°, undefined°

Span
Click to sort rows by Start time (UTC) header in descending order
Start Az.
Max El. time (UTC)
Max El. Az.
Max El.
End time (UTC)
End Az.
7 mins2025-07-01 15:24:27.593Z214.011° SW2025-07-01 15:28:27.593Z116.639° SE39.796°2025-07-01 15:31:27.593Z59.514° ENE
4 mins2025-07-01 17:06:27.593Z299.653° NW2025-07-01 17:07:27.593Z321.5° NNW23.594°2025-07-01 17:10:27.593Z23.339° NE
6 mins2025-07-01 22:07:27.593Z324.419° NNW2025-07-01 22:09:27.593Z18.906° NNE40.09°2025-07-01 22:13:27.593Z115.826° SE
4 mins2025-07-01 23:47:27.593Z258.973° W2025-07-01 23:48:27.593Z240.74° WSW18.059°2025-07-01 23:51:27.593Z189.802° SSW
|